{"data":{"norad_id":65832,"epoch":"2026-05-23T06:41:12.146784Z","epoch_age_seconds":220405,"freshness":"STALE","line1":"1 65832U 25221K   26143.27861281  .00020133  00000+0  68952-3 0  9998","line2":"2 65832  53.1620 101.8507 0001798 139.0441 221.0695 15.30223797 37501","mean_motion":15.30223797,"eccentricity":0.0001798,"inclination_deg":53.162,"raan_deg":101.8507,"arg_perigee_deg":139.0441,"mean_anomaly_deg":221.0695,"bstar":0.00068952,"rev_number":3750,"period_min":94.103882244095,"perigee_km":473.91179686076,"apogee_km":476.3762367144,"semimajor_km":6853.2810167876,"source":"CELESTRAK","updated_at":"2026-05-25T13:38:20.943592Z"}}